Weather History for Victoria, BC

Change the Weather History Date:

Thursday, December 26, 2013

  Actual Average Record
Temperature  
Mean Temperature 38 °F -  
Max Temperature 45 °F 44 °F 53 °F (2005)
Min Temperature 32 °F 33 °F 19 °F (1996)
Degree Days  
Heating Degree Days 26    
Moisture  
Dew Point 37 °F    
Average Humidity 91    
Maximum Humidity 100    
Minimum Humidity 81    
Precipitation  
Precipitation 0.00 in 0.19 in - ()
Sea Level Pressure  
Sea Level Pressure 30.31 in    
Wind  
Wind Speed 3 mph ()    
Max Wind Speed 10 mph    
Max Gust Speed -    
Visibility 8.6 miles    
Events Fog , Rain    
Averages and records for this station are not official NWS values.
T = Trace of Precipitation, MM = Missing Value Source: Averaged Metar Reports

Daily Weather History Graph

Daily Weather History Graph

Search for Another Location

Airport:

Trip Planner

Search our weather history database for the weather conditions in past years. The results will help you decide how hot, cold, wet, or windy it might be!

Date:

Astronomy

Dec. 26, 2013 Rise Set
Actual Time 8:05 AM PST 4:23 PM PST
Civil Twilight 7:28 AM PST 5:00 PM PST
Nautical Twilight 6:48 AM PST 5:40 PM PST
Astronomical Twilight 6:10 AM PST 6:19 PM PST
Moon 1:18 AM PST (12/26) 12:21 PM PST (12/26)
Length of Visible Light 9h 31m
Length of Day
8h 17m
Last Quarter, 37% of the Moon is Illuminated
Dec 26
Last Quarter
Jan 1
New
Jan 7
First Quarter
Jan 15
Full
Jan 23
Last Quarter

Hourly Weather History & Observations

Time (PST) Temp. Windchill Dew Point Humidity Pressure Visibility Wind Dir Wind Speed Gust Speed Precip Events Conditions
12:00 AM 41.0 °F 39.0 °F 37.4 °F 87% 30.40 in 30.0 mi SSE 3.5 mph - N/A   Overcast
1:00 AM 41.0 °F - 37.4 °F 87% 30.40 in 30.0 mi NE 2.3 mph - N/A   Overcast
1:06 AM 42.8 °F - 37.4 °F 81% 30.40 in 30.0 mi Calm Calm - N/A Rain Light Rain
1:33 AM 41.0 °F 39.0 °F 37.4 °F 87% 30.40 in 30.0 mi East 3.5 mph - N/A   Overcast
2:00 AM 41.0 °F 37.1 °F 39.2 °F 93% 30.40 in 20.0 mi East 5.8 mph - N/A   Overcast
2:22 AM 41.0 °F 38.0 °F 39.2 °F 93% 30.40 in 20.0 mi East 4.6 mph - N/A   Overcast
3:00 AM 41.0 °F 39.0 °F 39.2 °F 93% 30.40 in 30.0 mi ESE 3.5 mph - N/A   Overcast
4:00 AM 41 °F - 39 °F 91% 30.39 in 28 mi SE 2.3 mph - -   Partly Cloudy
4:00 AM 41.0 °F - 39.2 °F 93% 30.38 in 30.0 mi SE 2.3 mph - N/A   Overcast
5:00 AM 41.0 °F - 39.2 °F 93% 30.37 in 30.0 mi East 2.3 mph - N/A   Mostly Cloudy
6:00 AM 41.0 °F - 39.2 °F 93% 30.37 in 30.0 mi Calm Calm - N/A   Overcast
7:00 AM 41.0 °F 39.0 °F 37.4 °F 87% 30.35 in 30.0 mi SSE 3.5 mph - N/A   Mostly Cloudy
8:00 AM 41.0 °F 39.0 °F 39.2 °F 93% 30.34 in 30.0 mi South 3.5 mph - N/A   Mostly Cloudy
9:00 AM 42.8 °F - 39.2 °F 87% 30.35 in 30.0 mi SSE 2.3 mph - N/A   Mostly Cloudy
10:00 AM 43 °F - 40 °F 83% 30.35 in 28 mi SE 3.5 mph - -   Partly Cloudy
10:00 AM 42.8 °F 41.1 °F 39.2 °F 87% 30.35 in 30.0 mi SE 3.5 mph - N/A   Mostly Cloudy
11:00 AM 44.6 °F 40.7 °F 41.0 °F 87% 30.34 in 30.0 mi SE 6.9 mph - N/A   Mostly Cloudy
12:00 PM 46.4 °F 42.4 °F 41.0 °F 81% 30.32 in 30.0 mi SE 8.1 mph - N/A   Mostly Cloudy
1:00 PM 44.6 °F 39.2 °F 41.0 °F 87% 30.30 in 30.0 mi SE 10.4 mph - N/A   Mostly Cloudy
2:00 PM 44.6 °F 40.7 °F 41.0 °F 87% 30.29 in 30.0 mi SE 6.9 mph - N/A   Mostly Cloudy
3:00 PM 44.6 °F 40.7 °F 41.0 °F 87% 30.28 in 30.0 mi ESE 6.9 mph - N/A   Mostly Cloudy
4:00 PM 43 °F - 39 °F 81% 30.28 in 28 mi SE 6.9 mph - -   Scattered Clouds
4:00 PM 42.8 °F 38.6 °F 39.2 °F 87% 30.28 in 30.0 mi SE 6.9 mph - N/A   Mostly Cloudy
5:00 PM 42.8 °F 41.1 °F 37.4 °F 81% 30.27 in 30.0 mi SE 3.5 mph - N/A   Scattered Clouds
5:38 PM 35.6 °F - 33.8 °F 93% 30.27 in 30.0 mi WSW 2.3 mph - N/A   Scattered Clouds
6:00 PM 35.6 °F - 35.6 °F 100% 30.26 in 30.0 mi Calm Calm - N/A   Scattered Clouds
7:00 PM 33.8 °F - 33.8 °F 100% 30.25 in 30.0 mi Calm Calm - N/A   Partly Cloudy
8:00 PM 32.0 °F - 32.0 °F 100% 30.24 in 30.0 mi Calm Calm - N/A   Partly Cloudy
9:00 PM 33.8 °F - 32.0 °F 93% 30.23 in 20.0 mi WNW 2.3 mph - N/A   Clear
10:00 PM 32 °F - 32 °F 99% 30.24 in 3 mi West 2.3 mph - -  
10:00 PM 32.0 °F 28.7 °F 32.0 °F 100% 30.23 in 3.0 mi West 3.5 mph - N/A   Clear
11:00 PM 32.0 °F 28.7 °F 32.0 °F 100% 30.23 in 15.0 mi West 3.5 mph - N/A   Clear
11:13 PM 32.0 °F - 32.0 °F 100% 30.23 in 3.0 mi WSW 2.3 mph - N/A   Scattered Clouds
11:23 PM 32.0 °F 27.5 °F 32.0 °F 100% 30.22 in 1.0 mi WSW 4.6 mph - N/A   Mostly Cloudy
11:41 PM 35.6 °F - 35.6 °F 100% 30.22 in 0.6 mi West 2.3 mph - N/A   Mostly Cloudy
11:48 PM 32.0 °F - 32.0 °F 100% 30.22 in 0.5 mi West 2.3 mph - N/A Fog Fog